Location: Bradford+West+Gwillimbury,+ON,+Canadà
(44.1162°N, 79.5735°W)
Time: 16:17:44
(UTC-04:00)

STARLINK-2627 - Pass Details

Date: 22 June 2021
Orbit: 348 x 351 km, 53.0° (Epoch: 05 August)

Event Time Altitude Azimuth Distance (km) Brightness Sun altitude
Rises 13:54:00 0° 272° (W) 2,206 6.8 68.2°
Enters shadow 14:27:35 -57° 138° (SE) 11,039 9.8 65.1°
Exits shadow 15:03:52 -50° 339° (NNW) 10,284 9.6 60.4°
Maximum altitude 04:52:58 25° 135° (SE) 798 4.5 -6.8°
